Location: downtown San Diego
(32.7310°N, 117.1990°W)
Time: 20:41:05
(UTC-08:00)

Cosmos 405 Rocket - Pass Details

Date: 19 May 2017
Orbit: 491 x 558 km, 81.3° (Epoch: 20 November)

Event Time Altitude Azimuth Distance (km) Brightness Sun altitude
Rises 10:49:16 0° 292° (WNW) 2,722 6.1 61.1°
Enters shadow 11:27:44 -64° 160° (SSE) 12,044 9.2 68.5°
Exits shadow 11:56:08 -52° 27° (NNE) 10,690 8.8 73.1°
